Location: Unspecified
(0.0000°N, 0.0000°E)
Time: 20:29:58
(UTC+00:00)

CZ-3A DEB - Visible Passes

Search period start: 14 January 2025 00:00
Search period end: 24 January 2025 00:00
Orbit: 495 x 39154 km, 23.5° (Epoch: 30 July)

Date Brightness Start Highest point End Pass type
(mag) Time Alt. Az. Time Alt. Az. Time Alt. Az.
14 Jan ? 12:01:46 10° WNW 15:50:08 74° NNW 22:49:19 21° SSE visible
15 Jan ? 10:47:30 10° WNW 16:25:46 80° NNW 21:39:23 10° SE visible
16 Jan ? 09:33:59 10° WNW 17:10:05 87° NNW 20:25:56 10° SE visible
17 Jan ? 08:20:52 10° WNW 17:18:41 78° ESE 19:11:03 10° ESE visible
20 Jan ? 04:43:41 35° SW 04:44:51 66° SSE 04:50:31 10° ENE visible
20 Jan ? 18:02:56 10° WNW 18:36:06 11° WNW 19:16:57 10° WNW visible
21 Jan ? 03:33:37 11° ESE 03:33:37 11° ESE 03:33:48 10° ESE visible
21 Jan ? 15:56:35 10° WNW 17:27:22 29° WNW 20:36:48 10° W visible
22 Jan ? 14:27:36 10° WNW 16:19:37 46° WNW 21:27:39 10° W visible
23 Jan ? 00:48:10 10° SW 00:54:38 15° SW 00:54:38 15° SW visible
23 Jan ? 13:06:09 10° WNW 15:21:02 63° NW 23:43:44 28° SSW visible
